,,,PA_Meas_PMT16A,,PR_Meas_QMR101_102,,RH_Meas_QMH101,,SR_Meas_QMS101,,TA_Meas_QMH101,,GenWind,,GenWind,
date,time,status,PA,status,PR,status,RH,status,SR,status,TA,status,DirAvg,status,SpdAvg,
2012-08-01, 07:15:04,VALID,1005.82,VALID,0,VALID,89.4563,VALID,126.502,VALID,25.1034,INVALID,360,INVALID,0,
2012-08-01, 07:16:04,VALID,1005.82,VALID,0,VALID,89.6088,VALID,125.198,VALID,25.1832,VALID,351,VALID,0.462109,
2012-08-01, 07:17:04,VALID,1005.8,VALID,0,VALID,89.4105,VALID,124.464,VALID,25.2806,VALID,351,VALID,0.389844,
2012-08-01, 07:18:04,VALID,1005.8,VALID,0,VALID,89.113,VALID,124.627,VALID,25.3176,VALID,340,VALID,0.56875,
2012-08-01, 07:19:04,VALID,1005.85,VALID,0,VALID,88.0373,VALID,125.442,VALID,25.3565,VALID,352,VALID,0.791016,
2012-08-01, 07:20:04,VALID,1005.84,VALID,0,VALID,87.5567,VALID,125.687,VALID,25.4149,VALID,355,VALID,0.795703,
2012-08-01, 07:21:04,VALID,1005.83,VALID,0,VALID,87.5795,VALID,125.279,VALID,25.4948,VALID,347,VALID,0.584766,
2012-08-01, 07:22:04,VALID,1005.86,VALID,0,VALID,87.0837,VALID,124.22,VALID,25.5513,VALID,351,VALID,0.822266,
2012-08-01, 07:23:04,VALID,1005.87,VALID,0,VALID,87.4575,VALID,122.997,VALID,25.6311,VALID,351,VALID,0.53125,
2012-08-01, 07:24:04,VALID,1005.87,VALID,0,VALID,87.9228,VALID,121.693,VALID,25.6876,VALID,351,VALID,0.451172,
2012-08-01, 07:25:04,VALID,1005.9,VALID,0,VALID,87.8466,VALID,121.367,VALID,25.7869,VALID,351,VALID,0.461719,
2012-08-01, 07:26:04,VALID,1005.88,VALID,0,VALID,87.7321,VALID,121.367,VALID,25.785,VALID,351,VALID,0.71875,
2012-08-01, 07:27:04,VALID,1005.92,VALID,0,VALID,86.7556,VALID,121.774,VALID,25.8239,VALID,352,VALID,0.771094,
2012-08-01, 07:28:04,VALID,1005.9,VALID,0,VALID,86.7938,VALID,122.019,VALID,25.8648,VALID,352,VALID,0.671484,
2012-08-01, 07:29:04,VALID,1005.91,VALID,0,VALID,86.9235,VALID,121.937,VALID,25.8434,VALID,351,VALID,0.424609,
2012-08-01, 07:30:04,VALID,1005.93,VALID,0,VALID,87.2973,VALID,121.856,VALID,25.9232,VALID,356,VALID,0.427734,
2012-08-01, 07:31:04,VALID,1005.95,VALID,0,VALID,87.2362,VALID,122.508,VALID,25.9408,VALID,356,VALID,0.507422,
2012-08-01, 07:32:04,VALID,1005.96,VALID,0,VALID,87.2286,VALID,124.301,VALID,25.9992,VALID,352,VALID,0.226172,
2012-08-01, 07:33:04,VALID,1005.97,VALID,0,VALID,86.7938,VALID,128.947,VALID,26.0791,VALID,352,VALID,0.224219,
2012-08-01, 07:34:04,VALID,1005.97,VALID,0,VALID,86.3132,VALID,133.023,VALID,26.1375,VALID,352,VALID,0.00351562,
2012-08-01, 07:35:04,VALID,1006.02,VALID,0,VALID,85.3367,VALID,139.054,VALID,26.155,VALID,352,VALID,0.170312,
2012-08-01, 07:36:04,VALID,1005.97,VALID,0,VALID,84.528,VALID,145.656,VALID,26.2349,VALID,351,VALID,0.0519531,
2012-08-01, 07:37:04,VALID,1005.97,VALID,0,VALID,84.4212,VALID,153.726,VALID,26.3343,VALID,351,VALID,0.0222656,
2012-08-01, 07:38:04,VALID,1006,VALID,0,VALID,83.4371,VALID,156.823,VALID,26.3907,VALID,350,VALID,0.0734375,
2012-08-01, 07:39:04,VALID,1006.01,VALID,0,VALID,82.7047,VALID,162.529,VALID,26.4472,VALID,15,VALID,0.545313,
2012-08-01, 07:40:04,VALID,1005.99,VALID,0,VALID,82.6208,VALID,169.783,VALID,26.5076,VALID,350,VALID,0.053125,
2012-08-01, 07:41:04,VALID,1005.99,VALID,0,VALID,82.3004,VALID,192.524,VALID,26.5661,VALID,351,VALID,0.203516,
2012-08-01, 07:42:04,VALID,1006.02,VALID,0,VALID,82.4072,VALID,187.797,VALID,26.644,VALID,351,VALID,0.363281,
2012-08-01, 07:43:04,VALID,1006.02,VALID,0,VALID,81.0569,VALID,191.301,VALID,26.7024,VALID,302,VALID,0.402344,
2012-08-01, 07:44:04,VALID,1006.05,VALID,0,VALID,81.3162,VALID,195.458,VALID,26.7414,VALID,354,VALID,0.473437,
2012-08-01, 07:45:04,VALID,1006.08,VALID,0,VALID,80.9577,VALID,199.697,VALID,26.7804,VALID,353,VALID,0.421094,
2012-08-01, 07:46:04,VALID,1006.1,VALID,0,VALID,81.6138,VALID,204.669,VALID,26.8408,VALID,353,VALID,0.417188,
2012-08-01, 07:47:04,VALID,1006.1,VALID,0,VALID,81.7358,VALID,209.641,VALID,26.8778,VALID,353,VALID,0.395312,
2012-08-01, 07:48:04,VALID,1006.14,VALID,0,VALID,80.1719,VALID,214.287,VALID,26.8973,VALID,349,VALID,0.787109,
2012-08-01, 07:49:04,VALID,1006.2,VALID,0,VALID,80.355,VALID,218.933,VALID,26.9383,VALID,352,VALID,0.576563,
2012-08-01, 07:50:04,VALID,1006.21,VALID,0,VALID,80.2787,VALID,223.66,VALID,26.9557,VALID,353,VALID,0.582422,
2012-08-01, 07:51:04,VALID,1006.23,VALID,0,VALID,79.7676,VALID,227.654,VALID,27.0142,VALID,339,VALID,0.644141,
2012-08-01, 07:52:04,VALID,1006.24,VALID,0,VALID,81.7892,VALID,241.103,VALID,27.0921,VALID,340,VALID,0.329297,
2012-08-01, 07:53:04,VALID,1006.27,VALID,0,VALID,81.1484,VALID,233.686,VALID,27.17,VALID,341,VALID,0.470703,
2012-08-01, 07:54:04,VALID,1006.28,VALID,0,VALID,79.5158,VALID,237.109,VALID,27.2285,VALID,342,VALID,0.674219,
2012-08-01, 07:55:04,VALID,1006.29,VALID,0,VALID,79.8896,VALID,242.163,VALID,27.2675,VALID,342,VALID,0.412891,
2012-08-01, 07:56:04,VALID,1006.29,VALID,0,VALID,78.9208,VALID,275.5,VALID,27.3454,VALID,342,VALID,0.478125,
2012-08-01, 07:57:04,VALID,1006.32,VALID,0,VALID,79.5997,VALID,272.566,VALID,27.4408,VALID,342,VALID,0.403906,
2012-08-01, 07:58:04,VALID,1006.32,VALID,0,VALID,79.2107,VALID,388.308,VALID,27.5598,VALID,343,VALID,0.793359,
2012-08-01, 07:59:04,VALID,1006.31,VALID,0,VALID,77.2043,VALID,430.693,VALID,27.6572,VALID,343,VALID,0.623438,
2012-08-01, 08:00:04,VALID,1006.33,VALID,0,VALID,77.929,VALID,348.043,VALID,27.7741,VALID,343,VALID,0.405078,
2012-08-01, 08:01:04,VALID,1006.34,VALID,0,VALID,77.0669,VALID,496.634,VALID,27.9474,VALID,337,VALID,0.321094,
2012-08-01, 08:02:04,VALID,1006.32,VALID,0,VALID,75.7853,VALID,384.07,VALID,28.2397,VALID,322,VALID,0.567578,
2012-08-01, 08:03:04,VALID,1006.34,VALID,0,VALID,75.6022,VALID,308.511,VALID,28.5537,VALID,331,VALID,0.338672,
2012-08-01, 08:04:04,VALID,1006.34,VALID,0,VALID,72.4896,VALID,266.779,VALID,28.7075,VALID,343,VALID,0.565234,
2012-08-01, 08:05:04,VALID,1006.38,VALID,0,VALID,73.428,VALID,255.775,VALID,28.8072,VALID,301,VALID,0.344141,
2012-08-01, 08:06:04,VALID,1006.39,VALID,0,VALID,72.8787,VALID,249.743,VALID,28.8851,VALID,321,VALID,0.421094,
2012-08-01, 08:07:04,VALID,1006.4,VALID,0,VALID,71.4826,VALID,255.204,VALID,28.9046,VALID,351,VALID,0.628906,
2012-08-01, 08:08:04,VALID,1006.39,VALID,0,VALID,71.5818,VALID,247.298,VALID,28.8461,VALID,349,VALID,0.577734,
2012-08-01, 08:09:04,VALID,1006.42,VALID,0,VALID,71.7038,VALID,577.491,VALID,28.7487,VALID,357,VALID,1.10781,
2012-08-01, 08:10:04,VALID,1006.45,VALID,0,VALID,73.428,VALID,599.661,VALID,28.8072,VALID,355,VALID,0.132422,
2012-08-01, 08:11:04,VALID,1006.45,VALID,0,VALID,73.4585,VALID,583.196,VALID,29.0823,VALID,359,VALID,0.322266,
2012-08-01, 08:12:04,VALID,1006.48,VALID,0,VALID,69.8653,VALID,582.87,VALID,29.3965,VALID,8,VALID,0.639844,
2012-08-01, 08:13:04,VALID,1006.47,VALID,0,VALID,68.8278,VALID,578.143,VALID,29.587,VALID,300,VALID,0.574219,
2012-08-01, 08:14:04,VALID,1006.51,VALID,0,VALID,69.9263,VALID,565.02,VALID,29.8015,VALID,301,VALID,0.641016,
2012-08-01, 08:15:04,VALID,1006.52,VALID,0,VALID,69.8195,VALID,396.785,VALID,29.9965,VALID,30,VALID,0.245312,
2012-08-01, 08:16:04,VALID,1006.53,VALID,0,VALID,68.1183,VALID,371.029,VALID,30.1525,VALID,290,VALID,0.308984,
2012-08-01, 08:17:04,VALID,1006.55,VALID,0,VALID,65.8372,VALID,304.517,VALID,30.25,VALID,350,VALID,0.777734,
2012-08-01, 08:18:04,VALID,1006.61,VALID,0,VALID,66.7908,VALID,312.831,VALID,30.1548,VALID,6,VALID,0.814453,
2012-08-01, 08:19:04,VALID,1006.61,VALID,0,VALID,67.0579,VALID,382.114,VALID,29.9208,VALID,356,VALID,1.06445,
2012-08-01, 08:20:04,VALID,1006.6,VALID,0,VALID,67.3783,VALID,340.626,VALID,29.7648,VALID,5,VALID,0.648047,
2012-08-01, 08:21:04,VALID,1006.66,VALID,0,VALID,69.4228,VALID,243.549,VALID,29.6673,VALID,357,VALID,0.70625,
2012-08-01, 08:22:04,VALID,1006.65,VALID,0,VALID,70.1399,VALID,267.186,VALID,29.5698,VALID,357,VALID,0.29375,
2012-08-01, 08:23:04,VALID,1006.66,VALID,0,VALID,68.7286,VALID,222.682,VALID,29.6088,VALID,350,VALID,0.380078,
2012-08-01, 08:24:04,VALID,1006.67,VALID,0,VALID,69.8119,VALID,220.971,VALID,29.611,VALID,339,VALID,0.358203,
2012-08-01, 08:25:04,VALID,1006.68,VALID,0,VALID,68.576,VALID,196.763,VALID,29.5308,VALID,347,VALID,0.826563,
2012-08-01, 08:26:04,VALID,1006.7,VALID,0,VALID,69.9721,VALID,180.135,VALID,29.455,VALID,349,VALID,0.316406,
2012-08-01, 08:27:04,VALID,1006.69,VALID,0,VALID,69.2702,VALID,167.582,VALID,29.3748,VALID,302,VALID,0.639063,
2012-08-01, 08:28:04,VALID,1006.71,VALID,0,VALID,69.3999,VALID,162.855,VALID,29.2968,VALID,290,VALID,0,
2012-08-01, 08:29:04,VALID,1006.72,VALID,0,VALID,71.4826,VALID,162.773,VALID,29.299,VALID,290,VALID,0,
2012-08-01, 08:30:04,VALID,1006.7,VALID,0,VALID,71.0478,VALID,162.366,VALID,29.2556,VALID,2,VALID,0.625781,
2012-08-01, 08:31:04,VALID,1006.73,VALID,0,VALID,70.4146,VALID,159.513,VALID,29.1581,VALID,1,VALID,0.898047,
2012-08-01, 08:32:04,VALID,1006.71,VALID,0,VALID,71.5436,VALID,160.817,VALID,29.0238,VALID,1,VALID,0.6875,
2012-08-01, 08:33:04,VALID,1006.73,VALID,0,VALID,71.7344,VALID,165.545,VALID,28.8678,VALID,357,VALID,0.745703,
2012-08-01, 08:34:04,VALID,1006.7,VALID,0,VALID,73.283,VALID,171.658,VALID,28.7509,VALID,357,VALID,0.419531,
2012-08-01, 08:35:04,VALID,1006.7,VALID,0,VALID,73.7789,VALID,178.749,VALID,28.7292,VALID,357,VALID,0.312891,
2012-08-01, 08:36:04,VALID,1006.69,VALID,0,VALID,73.2067,VALID,185.351,VALID,28.7704,VALID,357,VALID,0.219141,
2012-08-01, 08:37:04,VALID,1006.68,VALID,0,VALID,71.2995,VALID,192.687,VALID,28.8093,VALID,346,VALID,0.523047,
2012-08-01, 08:38:04,VALID,1006.65,VALID,0,VALID,71.208,VALID,206.218,VALID,28.8093,VALID,317,VALID,0.580078,
2012-08-01, 08:39:04,VALID,1006.65,VALID,0,VALID,70.8113,VALID,226.839,VALID,28.7682,VALID,327,VALID,0.301172,
2012-08-01, 08:40:04,VALID,1006.64,VALID,0,VALID,70.7579,VALID,297.018,VALID,28.7877,VALID,327,VALID,0,
2012-08-01, 08:41:04,VALID,1006.66,VALID,0,VALID,72.5583,VALID,653.212,VALID,28.9046,VALID,327,VALID,0.276953,
2012-08-01, 08:42:04,VALID,1006.64,VALID,0,VALID,71.1698,VALID,645.306,VALID,29.0996,VALID,327,VALID,0.317578,
2012-08-01, 08:43:04,VALID,1006.64,VALID,0,VALID,71.5208,VALID,430.856,VALID,29.4528,VALID,328,VALID,0.188672,
2012-08-01, 08:44:04,VALID,1006.64,VALID,0,VALID,68.6981,VALID,495.737,VALID,29.7235,VALID,343,VALID,0.457422,
2012-08-01, 08:45:04,VALID,1006.63,VALID,0,VALID,68.8125,VALID,747.681,VALID,29.9598,VALID,308,VALID,0.331641,
2012-08-01, 08:46:04,VALID,1006.6,VALID,0,VALID,66.1577,VALID,539.018,VALID,30.094,VALID,179,VALID,1.15547,
2012-08-01, 08:47:04,VALID,1006.64,VALID,0,VALID,66.5315,VALID,343.886,VALID,29.8818,VALID,148,VALID,0.587891,
2012-08-01, 08:48:04,VALID,1006.65,VALID,0,VALID,66.9816,VALID,309.734,VALID,29.6868,VALID,138,VALID,0.186719,
2012-08-01, 08:49:04,VALID,1006.67,VALID,0,VALID,67.3478,VALID,284.14,VALID,29.6455,VALID,138,VALID,0.0917969,
2012-08-01, 08:50:04,VALID,1006.65,VALID,0,VALID,68.0115,VALID,292.454,VALID,29.704,VALID,223,VALID,0.746484,
2012-08-01, 08:51:04,VALID,1006.67,VALID,0,VALID,69.7737,VALID,438.273,VALID,29.6455,VALID,197,VALID,0.742969,
2012-08-01, 08:52:04,VALID,1006.69,VALID,0,VALID,70.3383,VALID,356.438,VALID,29.5698,VALID,223,VALID,0.816797,
2012-08-01, 08:53:04,VALID,1006.69,VALID,0,VALID,68.1488,VALID,393.444,VALID,29.5698,VALID,269,VALID,0.471875,
2012-08-01, 08:54:04,VALID,1006.68,VALID,0,VALID,68.4158,VALID,339.403,VALID,29.5893,VALID,292,VALID,0.417969,
2012-08-01, 08:55:04,VALID,1006.67,VALID,0,VALID,69.3847,VALID,383.988,VALID,29.6673,VALID,299,VALID,0.513672,
2012-08-01, 08:56:04,VALID,1006.66,VALID,0,VALID,67.4469,VALID,348.206,VALID,29.7063,VALID,345,VALID,1.0918,
2012-08-01, 08:57:04,VALID,1006.64,VALID,0,VALID,68.782,VALID,345.027,VALID,29.5698,VALID,348,VALID,0.479688,
2012-08-01, 08:58:04,VALID,1006.62,VALID,0,VALID,68.4387,VALID,325.791,VALID,29.5503,VALID,345,VALID,0.226172,
2012-08-01, 08:59:04,VALID,1006.62,VALID,0,VALID,68.0496,VALID,314.624,VALID,29.4918,VALID,30,VALID,0.723437,
2012-08-01, 09:00:04,VALID,1006.61,VALID,0,VALID,68.7286,VALID,283.325,VALID,29.3943,VALID,12,VALID,0.864453,
2012-08-01, 09:01:04,VALID,1006.59,VALID,0,VALID,68.988,VALID,277.864,VALID,29.2773,VALID,13,VALID,0.914063,
2012-08-01, 09:02:04,VALID,1006.58,VALID,0,VALID,70.2315,VALID,281.939,VALID,29.1993,VALID,20,VALID,0.198828,
2012-08-01, 09:03:04,VALID,1006.57,VALID,0,VALID,71.4292,VALID,304.68,VALID,29.2383,VALID,20,VALID,0.158594,
2012-08-01, 09:04:04,VALID,1006.58,VALID,0,VALID,71.1927,VALID,368.339,VALID,29.3553,VALID,20,VALID,0.0484375,
2012-08-01, 09:05:04,VALID,1006.56,VALID,0,VALID,70.4985,VALID,402.165,VALID,29.4918,VALID,31,VALID,0.115234,
2012-08-01, 09:06:04,VALID,1006.56,VALID,0,VALID,69.522,VALID,473.974,VALID,29.533,VALID,159,VALID,0.469531,
2012-08-01, 09:07:04,VALID,1006.55,VALID,0,VALID,69.5144,VALID,513.343,VALID,29.65,VALID,210,VALID,1.64141,
2012-08-01, 09:08:04,VALID,1006.51,VALID,0,VALID,68.6218,VALID,407.137,VALID,29.533,VALID,197,VALID,1.11211,
2012-08-01, 09:09:04,VALID,1006.5,VALID,0,VALID,69.6364,VALID,513.343,VALID,29.494,VALID,243,VALID,0.299219,
2012-08-01, 09:10:04,VALID,1006.45,VALID,0,VALID,68.248,VALID,335.002,VALID,29.5893,VALID,251,VALID,0.481641,
2012-08-01, 09:11:04,VALID,1006.45,VALID,0,VALID,68.6752,VALID,327.992,VALID,29.5503,VALID,221,VALID,1.46367,
2012-08-01, 09:12:04,VALID,1006.42,VALID,0,VALID,69.7737,VALID,304.68,VALID,29.392,VALID,217,VALID,0.285547,
2012-08-01, 09:13:04,VALID,1006.41,VALID,0,VALID,71.0478,VALID,273.055,VALID,29.4115,VALID,224,VALID,0.960938,
2012-08-01, 09:14:04,VALID,1006.36,VALID,0,VALID,71.1698,VALID,237.68,VALID,29.2751,VALID,223,VALID,1.41758,
2012-08-01, 09:15:04,VALID,1006.39,VALID,0,VALID,70.8265,VALID,209.152,VALID,29.1776,VALID,224,VALID,0.897656,
2012-08-01, 09:16:04,VALID,1006.37,VALID,0,VALID,70.4222,VALID,197.496,VALID,29.0801,VALID,205,VALID,0.542578,
2012-08-01, 09:17:04,VALID,1006.38,VALID,0,VALID,69.9721,VALID,190.649,VALID,28.9241,VALID,187,VALID,0.540234,
2012-08-01, 09:18:04,VALID,1006.37,VALID,0,VALID,72.1845,VALID,187.552,VALID,28.8267,VALID,192,VALID,1.10312,
2012-08-01, 09:19:04,VALID,1006.38,VALID,0,VALID,72.215,VALID,192.443,VALID,28.7314,VALID,172,VALID,0.771875,
2012-08-01, 09:20:04,VALID,1006.37,VALID,0,VALID,72.5507,VALID,193.421,VALID,28.6902,VALID,216,VALID,0.974219,
2012-08-01, 09:21:04,VALID,1006.39,VALID,0,VALID,71.6886,VALID,201.409,VALID,28.6317,VALID,234,VALID,1.26836,
2012-08-01, 09:22:04,VALID,1006.4,VALID,0,VALID,73.1228,VALID,216.325,VALID,28.5949,VALID,227,VALID,0.921484,
2012-08-01, 09:23:04,VALID,1006.37,VALID,0,VALID,72.482,VALID,220.237,VALID,28.5559,VALID,233,VALID,0.417578,
2012-08-01, 09:24:04,VALID,1006.33,VALID,0,VALID,71.7115,VALID,225.128,VALID,28.5559,VALID,222,VALID,0.698438,
2012-08-01, 09:25:04,VALID,1006.34,VALID,0,VALID,72.7948,VALID,229.366,VALID,28.4953,VALID,226,VALID,1.20586,
2012-08-01, 09:26:04,VALID,1006.27,VALID,0,VALID,73.7484,VALID,227.002,VALID,28.4758,VALID,226,VALID,1.01406,
2012-08-01, 09:27:04,VALID,1006.25,VALID,0,VALID,71.8793,VALID,214.45,VALID,28.5169,VALID,221,VALID,0.975391,
2012-08-01, 09:28:04,VALID,1006.24,VALID,0,VALID,72.8711,VALID,210.701,VALID,28.4953,VALID,223,VALID,0.494531,
2012-08-01, 09:29:04,VALID,1006.21,VALID,0,VALID,72.5201,VALID,240.451,VALID,28.5516,VALID,223,VALID,0.0917969,
2012-08-01, 09:30:04,VALID,1006.23,VALID,0,VALID,70.6663,VALID,265.964,VALID,28.6729,VALID,222,VALID,1.05195,
2012-08-01, 09:31:04,VALID,1006.23,VALID,0,VALID,72.9779,VALID,259.117,VALID,28.6729,VALID,215,VALID,0.668359,
2012-08-01, 09:32:04,VALID,1006.21,VALID,0,VALID,73.3059,VALID,343.805,VALID,28.7119,VALID,237,VALID,0.562109,
2012-08-01, 09:33:04,VALID,1006.2,VALID,0,VALID,72.276,VALID,415.695,VALID,28.7877,VALID,235,VALID,0.232422,
2012-08-01, 09:34:04,VALID,1006.2,VALID,0,VALID,70.1628,VALID,623.299,VALID,28.9848,VALID,243,VALID,0.485938,
2012-08-01, 09:35:04,VALID,1006.18,VALID,0,VALID,69.8119,VALID,276.641,VALID,29.1603,VALID,209,VALID,0.432031,
2012-08-01, 09:36:04,VALID,1006.17,VALID,0,VALID,69.3465,VALID,804.819,VALID,29.1581,VALID,161,VALID,0.592969,
2012-08-01, 09:37:04,VALID,1006.15,VALID,0,VALID,71.3758,VALID,283.977,VALID,29.2773,VALID,170,VALID,0.604688,
2012-08-01, 09:38:04,VALID,1006.17,VALID,0,VALID,68.7591,VALID,755.995,VALID,29.3553,VALID,230,VALID,1.23477,
2012-08-01, 09:39:04,VALID,1006.14,VALID,0,VALID,70.3764,VALID,805.879,VALID,29.3748,VALID,228,VALID,1.36797,
2012-08-01, 09:40:04,VALID,1006.15,VALID,0,VALID,68.3624,VALID,807.753,VALID,29.4115,VALID,213,VALID,0.966797,
2012-08-01, 09:41:04,VALID,1006.13,VALID,0,VALID,72.0929,VALID,835.222,VALID,29.6088,VALID,205,VALID,0.794141,
2012-08-01, 09:42:04,VALID,1006.14,VALID,0,VALID,66.829,VALID,318.781,VALID,29.6478,VALID,179,VALID,1.0043,
2012-08-01, 09:43:04,VALID,1006.16,VALID,0,VALID,67.1341,VALID,226.839,VALID,29.5698,VALID,195,VALID,0.246484,
2012-08-01, 09:44:04,VALID,1006.14,VALID,0,VALID,67.4622,VALID,324.079,VALID,29.6088,VALID,188,VALID,0.320313,
2012-08-01, 09:45:04,VALID,1006.13,VALID,0,VALID,68.6828,VALID,841.172,VALID,29.7258,VALID,270,VALID,0.837891,
2012-08-01, 09:46:04,VALID,1006.14,VALID,0,VALID,66.6688,VALID,806.857,VALID,29.9793,VALID,202,VALID,0.5125,
2012-08-01, 09:47:04,VALID,1006.14,VALID,0,VALID,65.2498,VALID,812.97,VALID,30.1548,VALID,220,VALID,1.22852,
2012-08-01, 09:48:04,VALID,1006.11,VALID,0,VALID,66.9358,VALID,812.562,VALID,30.1743,VALID,214,VALID,0.629687,
2012-08-01, 09:49:04,VALID,1006.11,VALID,0,VALID,70.1094,VALID,608.953,VALID,30.3522,VALID,190,VALID,0.887109,
2012-08-01, 09:50:04,VALID,1006.08,VALID,0,VALID,65.3795,VALID,821.61,VALID,30.3109,VALID,166,VALID,0.915625,
2012-08-01, 09:51:04,VALID,1006.09,VALID,0,VALID,68.1412,VALID,827.234,VALID,30.2523,VALID,204,VALID,1.63672,
2012-08-01, 09:52:04,VALID,1006.06,VALID,0,VALID,65.2956,VALID,823.077,VALID,30.1353,VALID,177,VALID,2.51055,
2012-08-01, 09:53:04,VALID,1006.06,VALID,0,VALID,67.4088,VALID,763.086,VALID,29.9598,VALID,193,VALID,1.20977,
2012-08-01, 09:54:04,VALID,1006.05,VALID,0,VALID,65.8983,VALID,774.661,VALID,30.0183,VALID,242,VALID,1.76758,
2012-08-01, 09:55:04,VALID,1006.01,VALID,0,VALID,65.9212,VALID,794.956,VALID,30.0963,VALID,232,VALID,0.345703,
2012-08-01, 09:56:04,VALID,1005.99,VALID,0,VALID,65.021,VALID,789.006,VALID,30.2133,VALID,175,VALID,1.83945,
2012-08-01, 09:57:04,VALID,1006.02,VALID,0,VALID,67.7902,VALID,787.947,VALID,29.9988,VALID,167,VALID,1.71523,
2012-08-01, 09:58:04,VALID,1006.03,VALID,0,VALID,65.7304,VALID,784.605,VALID,30.0183,VALID,158,VALID,1.56719,
2012-08-01, 09:59:04,VALID,1006.05,VALID,0,VALID,67.7216,VALID,792.837,VALID,29.821,VALID,145,VALID,1.43398,
2012-08-01, 10:00:04,VALID,1006.08,VALID,0,VALID,69.6517,VALID,706.764,VALID,29.938,VALID,161,VALID,1.22695,
2012-08-01, 10:01:04,VALID,1006.03,VALID,0,VALID,68.3166,VALID,760.478,VALID,30.094,VALID,218,VALID,1.25,
2012-08-01, 10:02:04,VALID,1006.05,VALID,0,VALID,66.3789,VALID,777.351,VALID,30.0745,VALID,188,VALID,1.52031,
2012-08-01, 10:03:04,VALID,1006.06,VALID,0,VALID,66.5696,VALID,776.372,VALID,29.9965,VALID,181,VALID,2.23242,
2012-08-01, 10:04:04,VALID,1006.05,VALID,0,VALID,65.9898,VALID,778.981,VALID,29.8623,VALID,193,VALID,1.48438,
2012-08-01, 10:05:04,VALID,1006.02,VALID,0,VALID,68.248,VALID,784.36,VALID,29.728,VALID,171,VALID,2.16172,
2012-08-01, 10:06:04,VALID,1005.97,VALID,0,VALID,69.5067,VALID,787.376,VALID,29.7453,VALID,164,VALID,1.66328,
2012-08-01, 10:07:04,VALID,1005.96,VALID,0,VALID,67.6224,VALID,789.495,VALID,29.7258,VALID,166,VALID,1.87305,
2012-08-01, 10:08:04,VALID,1005.95,VALID,0,VALID,67.1723,VALID,737.656,VALID,29.6868,VALID,190,VALID,2.23906,
2012-08-01, 10:09:04,VALID,1005.92,VALID,0,VALID,70.384,VALID,779.959,VALID,29.6673,VALID,170,VALID,1.14805,
2012-08-01, 10:10:04,VALID,1005.92,VALID,0,VALID,69.4228,VALID,792.348,VALID,29.6868,VALID,195,VALID,1.44375,
2012-08-01, 10:11:04,VALID,1005.82,VALID,0,VALID,68.4997,VALID,796.668,VALID,29.7453,VALID,175,VALID,1.83711,
2012-08-01, 10:12:04,VALID,1005.86,VALID,0,VALID,68.4463,VALID,804.33,VALID,30.0768,VALID,172,VALID,1.72539,
2012-08-01, 10:13:04,VALID,1005.81,VALID,0,VALID,66.0814,VALID,811.992,VALID,30.1743,VALID,229,VALID,1.9793,
2012-08-01, 10:14:04,VALID,1005.81,VALID,0,VALID,70.6968,VALID,820.224,VALID,30.1743,VALID,142,VALID,1.75312,
2012-08-01, 10:15:04,VALID,1005.8,VALID,0,VALID,70.1399,VALID,714.507,VALID,30.3109,VALID,196,VALID,1.40117,
2012-08-01, 10:16:04,VALID,1005.81,VALID,0,VALID,66.4781,VALID,790.636,VALID,30.0573,VALID,165,VALID,2.13242,
2012-08-01, 10:17:04,VALID,1005.8,VALID,0,VALID,67.3478,VALID,598.683,VALID,29.9988,VALID,146,VALID,1.95273,
2012-08-01, 10:18:04,VALID,1005.81,VALID,0,VALID,67.508,VALID,464.112,VALID,29.8623,VALID,193,VALID,1.08438,
2012-08-01, 10:19:04,VALID,1005.78,VALID,0,VALID,68.0801,VALID,428.737,VALID,29.6868,VALID,159,VALID,2.1293,
2012-08-01, 10:20:04,VALID,1005.78,VALID,0,VALID,69.2321,VALID,396.459,VALID,29.4895,VALID,161,VALID,2.43906,
2012-08-01, 10:21:04,VALID,1005.74,VALID,0,VALID,69.8348,VALID,334.676,VALID,29.3553,VALID,174,VALID,2.02109,
2012-08-01, 10:22:04,VALID,1005.74,VALID,0,VALID,69.3541,VALID,313.239,VALID,29.1798,VALID,163,VALID,2.17461,
2012-08-01, 10:23:04,VALID,1005.71,VALID,0,VALID,73.0999,VALID,693.641,VALID,29.1235,VALID,193,VALID,1.41875,
2012-08-01, 10:24:04,VALID,1005.73,VALID,0,VALID,70.4985,VALID,548.555,VALID,29.1408,VALID,173,VALID,1.97422,
2012-08-01, 10:25:04,VALID,1005.72,VALID,0,VALID,70.2391,VALID,498.998,VALID,29.1018,VALID,186,VALID,2.29844,
2012-08-01, 10:26:04,VALID,1005.71,VALID,0,VALID,72.7948,VALID,641.638,VALID,29.0628,VALID,171,VALID,1.08047,
2012-08-01, 10:27:04,VALID,1005.71,VALID,0,VALID,69.8043,VALID,743.687,VALID,29.1581,VALID,197,VALID,2.40781,
2012-08-01, 10:28:04,VALID,1005.68,VALID,0,VALID,71.6581,VALID,514.81,VALID,29.1018,VALID,188,VALID,1.46289,
2012-08-01, 10:29:04,VALID,1005.69,VALID,0,VALID,72.0548,VALID,461.014,VALID,29.1603,VALID,174,VALID,1.7582,
2012-08-01, 10:30:04,VALID,1005.71,VALID,0,VALID,70.5977,VALID,387.656,VALID,29.1971,VALID,171,VALID,1.81875,
2012-08-01, 10:31:04,VALID,1005.7,VALID,0,VALID,70.5748,VALID,401.513,VALID,29.0411,VALID,203,VALID,1.60195,
2012-08-01, 10:32:04,VALID,1005.7,VALID,0,VALID,70.9867,VALID,441.371,VALID,28.9436,VALID,204,VALID,1.30508,
2012-08-01, 10:33:04,VALID,1005.69,VALID,0,VALID,72.2989,VALID,814.111,VALID,29.0021,VALID,187,VALID,1.18555,
2012-08-01, 10:34:04,VALID,1005.7,VALID,0,VALID,69.316,VALID,561.596,VALID,29.2166,VALID,151,VALID,1.50664,
2012-08-01, 10:35:04,VALID,1005.69,VALID,0,VALID,69.8424,VALID,684.593,VALID,29.1386,VALID,153,VALID,1.80898,
2012-08-01, 10:36:04,VALID,1005.67,VALID,0,VALID,69.7966,VALID,497.612,VALID,29.1191,VALID,162,VALID,1.83633,
2012-08-01, 10:37:04,VALID,1005.69,VALID,0,VALID,71.9632,VALID,674.242,VALID,29.0779,VALID,181,VALID,1.65156,
2012-08-01, 10:38:04,VALID,1005.7,VALID,0,VALID,70.1476,VALID,801.151,VALID,29.2751,VALID,157,VALID,1.17656,
2012-08-01, 10:39:04,VALID,1005.64,VALID,0,VALID,70.384,VALID,635.688,VALID,29.314,VALID,163,VALID,0.744141,
2012-08-01, 10:40:04,VALID,1005.68,VALID,0,VALID,71.9632,VALID,406.811,VALID,29.392,VALID,177,VALID,1.1418,
2012-08-01, 10:41:04,VALID,1005.66,VALID,0,VALID,69.1329,VALID,570.155,VALID,29.4115,VALID,195,VALID,2.1457,
2012-08-01, 10:42:04,VALID,1005.65,VALID,0,VALID,69.6517,VALID,538.774,VALID,29.2751,VALID,199,VALID,2.3832,
2012-08-01, 10:43:04,VALID,1005.63,VALID,0,VALID,68.9498,VALID,555.32,VALID,29.1559,VALID,205,VALID,1.6918,
2012-08-01, 10:44:04,VALID,1005.65,VALID,0,VALID,70.3612,VALID,457.51,VALID,29.1386,VALID,185,VALID,1.66523,
2012-08-01, 10:45:04,VALID,1005.63,VALID,0,VALID,71.2156,VALID,552.386,VALID,29.143,VALID,202,VALID,1.45313,
2012-08-01, 10:46:04,VALID,1005.61,VALID,0,VALID,69.3008,VALID,760.397,VALID,29.0845,VALID,156,VALID,0.903906,
2012-08-01, 10:47:04,VALID,1005.61,VALID,0,VALID,71.5208,VALID,703.096,VALID,29.2968,VALID,165,VALID,1.29375,
2012-08-01, 10:48:04,VALID,1005.6,VALID,0,VALID,71.208,VALID,774.987,VALID,29.3358,VALID,200,VALID,2.05938,